sat.trackr.live / text

‹ back to catalog

GONETS-M 19

NORAD 46488 · 2020-068C

PAYLOAD ACTIVE UNKNOWN

§ Identity

Operator
Country
CIS
Launch date
2020-09-28
Launch site
PLMSC
Launch vehicle
Mass (kg)
RCS (m²)

External: N2YO · Heavens-Above · Gunter

§ Orbital elements

Epoch: 2026-09-20T03:13:41.278656Z

Period
115.86 min
Inclination
82.4926°
Eccentricity
0.0013262
Mean motion
12.42895147 rev/d
Perigee alt
1,483.9 km
Apogee alt
1,504.8 km
Semi-major
7,872.5 km
B*
2.8214e-4
RAAN
287.9900°
Arg perigee
194.6785°
Mean anomaly
165.3911°
Rev number
27,104

§ Raw data

GONETS-M 191 46488U 20068C   26263.13450554  .00000049  00000+0  28214-3 0  99942 46488  82.4926 287.9900 0013262 194.6785 165.3911 12.42895147271045

JSON: /api/v1/satellites/46488 · /tle

For live sub-satellite position, see the globe view (requires WebGL).

§ Visibility from observer

Set your observer location to see the next 7 days of passes ≥ 10°. The values pass through the URL so the page stays shareable.

No JS? Fill the form by hand. The geolocation button needs JavaScript.

§ Radio — SatNOGS DB

ModeDescriptionDownlinkUplink
FM UHF Unknown 388.787 MHz

1 transmitter · refreshed weekly from db.satnogs.org